Weather History for KHBG - June, 2013

Change the Weather History Date:

Friday, June 21, 2013

  Actual Average Record
Temperature  
Mean Temperature 81 °F 80 °F  
Max Temperature 92 °F 91 °F 100 °F (2009)
Min Temperature 69 °F 69 °F 59 °F (1976)
Degree Days  
Heating Degree Days 0 0  
Month to date heating degree days 0 0  
Since 1 June heating degree days 0 0  
Since 1 July heating degree days 1864 1985  
Cooling Degree Days 16 15  
Month to date cooling degree days 321 283  
Year to date cooling degree days 663 698  
Since 1 June cooling degree days 321 283  
Growing Degree Days 30 (Base 50)    
Moisture  
Dew Point 71 °F    
Average Humidity 75    
Maximum Humidity 100    
Minimum Humidity 49    
Precipitation  
Precipitation 0.00 in 0.20 in 1.41 in (1983)
Month to date precipitation 4.49 3.44  
Year to date precipitation 41.70 29.98  
Sea Level Pressure  
Sea Level Pressure 30.10 in    
Wind  
Wind Speed 3 mph (ENE)    
Max Wind Speed 13 mph    
Max Gust Speed 33 mph    
Visibility 10 miles    
Events      
T = Trace of Precipitation, MM = Missing Value Source: NWS Daily Summary

Daily Weather History Graph

Daily Weather History Graph

Search for Another Location

Airport or City:

Trip Planner

Search our weather history database for the weather conditions in past years. The results will help you decide how hot, cold, wet, or windy it might be!

Date:

Astronomy

Jun. 21, 2013 Rise Set
Actual Time 5:53 AM CDT 8:04 PM CDT
Civil Twilight 5:25 AM CDT 8:32 PM CDT
Nautical Twilight 4:51 AM CDT 9:06 PM CDT
Astronomical Twilight 4:14 AM CDT 9:43 PM CDT
Moon 6:19 PM CDT (6/21) 4:03 AM CDT (6/21)
Length of Visible Light 15h 07m
Length of Day
14h 11m
Waxing Gibbous, 95% of the Moon is Illuminated
Jun 21
Waxing Gibbous
Jun 23
Full
Jun 29
Last Quarter
Jul 8
New
Jul 15
First Quarter

Hourly Weather History & Observations

Time (CDT) Temp. Heat Index Dew Point Humidity Pressure Visibility Wind Dir Wind Speed Gust Speed Precip Events Conditions
12:53 AM 72.0 °F - 71.1 °F 97% 30.09 in 10.0 mi Calm Calm - N/A   Clear
1:53 AM 72.0 °F - 70.0 °F 93% 30.08 in 10.0 mi Calm Calm - N/A   Clear
2:53 AM 71.1 °F - 69.1 °F 93% 30.07 in 10.0 mi Calm Calm - N/A   Clear
3:53 AM 70.0 °F - 69.1 °F 97% 30.08 in 10.0 mi Calm Calm - N/A   Clear
4:53 AM 70.0 °F - 69.1 °F 97% 30.08 in 10.0 mi Calm Calm - N/A   Clear
5:53 AM 69.1 °F - 68.0 °F 96% 30.10 in 10.0 mi Calm Calm - N/A   Clear
6:53 AM 72.0 °F - 70.0 °F 93% 30.11 in 10.0 mi Calm Calm - N/A   Clear
7:53 AM 75.9 °F - 72.0 °F 87% 30.12 in 10.0 mi Calm Calm - N/A   Clear
8:53 AM 80.1 °F 84.2 °F 73.0 °F 79% 30.13 in 10.0 mi East 4.6 mph - N/A   Clear
9:53 AM 82.0 °F 86.7 °F 72.0 °F 71% 30.13 in 10.0 mi Variable 3.5 mph 25.3 mph N/A   Clear
10:53 AM 84.9 °F 90.7 °F 72.0 °F 65% 30.14 in 10.0 mi Variable 4.6 mph - N/A   Clear
11:53 AM 87.1 °F 92.8 °F 71.1 °F 59% 30.14 in 10.0 mi NE 5.8 mph - N/A   Scattered Clouds
12:53 PM 88.0 °F 92.9 °F 70.0 °F 55% 30.13 in 10.0 mi ENE 8.1 mph 33.4 mph N/A   Scattered Clouds
1:53 PM 89.1 °F 93.7 °F 69.1 °F 52% 30.12 in 10.0 mi Calm Calm - N/A   Partly Cloudy
2:53 PM 91.0 °F 96.6 °F 70.0 °F 50% 30.09 in 10.0 mi NE 6.9 mph - N/A   Clear
3:53 PM 91.0 °F 95.6 °F 69.1 °F 48% 30.08 in 10.0 mi NNE 10.4 mph 29.9 mph N/A   Partly Cloudy
4:53 PM 90.0 °F 94.5 °F 69.1 °F 50% 30.07 in 10.0 mi NE 5.8 mph - N/A   Partly Cloudy
5:53 PM 89.1 °F 93.7 °F 69.1 °F 52% 30.06 in 10.0 mi ENE 8.1 mph - N/A   Clear
6:53 PM 87.1 °F 92.8 °F 71.1 °F 59% 30.06 in 10.0 mi East 4.6 mph - N/A   Clear
7:53 PM 82.0 °F 86.3 °F 71.1 °F 69% 30.08 in 10.0 mi SW 4.6 mph - N/A   Clear
8:53 PM 79.0 °F - 72.0 °F 79% 30.09 in 10.0 mi South 4.6 mph - N/A   Scattered Clouds
9:53 PM 75.9 °F - 72.0 °F 87% 30.10 in 10.0 mi Calm Calm - N/A   Clear
10:53 PM 75.9 °F - 72.0 °F 87% 30.10 in 10.0 mi Calm Calm - N/A   Clear
11:53 PM 73.9 °F - 72.0 °F 93% 30.09 in 10.0 mi Calm Calm - N/A   Clear